Total_Precipitation_Accumulation
0.49 0.46 0.43 0.42 0.41 0.36 0.34 0.37 0.36 0.35 0.36 0.41 0.42 0.38 0.37 0.33 0.30 0.30 0.26 0.27 0.25 0.25 0.40 0.57 0.71 0.91 1.09 1.26 1.46 1.51 1.26 1.06 0.91 0.79 0.77 0.85 0.92 0.95 0.96 0.99 1.06 1.01 0.89
0.51 0.46 0.43 0.40 0.40 0.39 0.37 0.35 0.34 0.32 0.28 0.27 0.25 0.26 0.31 0.34 0.35 0.34 0.31 0.31 0.29 0.26 0.32 0.48 0.63 0.81 1.04 1.29 1.51 1.78 1.62 1.42 1.21 1.00 0.82 0.80 0.86 0.91 0.94 1.00 1.06 1.14 1.11
0.60 0.55 0.50 0.44 0.40 0.39 0.39 0.40 0.39 0.37 0.33 0.28 0.25 0.23 0.22 0.24 0.27 0.32 0.32 0.32 0.33 0.31 0.31 0.40 0.55 0.70 0.90 1.20 1.50 1.78 1.99 1.82 1.58 1.35 1.09 0.86 0.84 0.88 0.93 1.02 1.09 1.16 1.23
0.63 0.63 0.61 0.58 0.52 0.48 0.45 0.44 0.43 0.41 0.38 0.33 0.29 0.26 0.25 0.24 0.23 0.25 0.27 0.30 0.34 0.35 0.34 0.38 0.48 0.64 0.81 1.01 1.30 1.62 2.02 2.07 1.99 1.78 1.60 1.26 1.00 0.93 0.98 1.06 1.17 1.24 1.29
0.66 0.64 0.63 0.64 0.68 0.65 0.55 0.49 0.45 0.40 0.39 0.35 0.32 0.31 0.28 0.26 0.26 0.27 0.25 0.23 0.25 0.30 0.34 0.37 0.44 0.55 0.70 0.88 1.11 1.40 1.75 2.10 2.21 2.15 2.05 1.82 1.45 1.15 1.10 1.16 1.24 1.34 1.42
0.71 0.71 0.67 0.64 0.67 0.70 0.67 0.57 0.49 0.45 0.41 0.39 0.36 0.35 0.35 0.32 0.28 0.26 0.25 0.24 0.22 0.24 0.31 0.36 0.39 0.46 0.57 0.71 0.90 1.17 1.49 1.90 2.27 2.31 2.25 2.23 2.07 1.67 1.41 1.35 1.38 1.47 1.57
0.76 0.76 0.76 0.75 0.72 0.69 0.66 0.61 0.56 0.53 0.50 0.46 0.48 0.47 0.42 0.39 0.38 0.32 0.27 0.25 0.25 0.24 0.27 0.36 0.41 0.42 0.50 0.62 0.74 0.88 1.16 1.57 2.08 2.57 2.54 2.41 2.47 2.29 1.91 1.71 1.66 1.71 1.84
0.90 0.81 0.78 0.78 0.76 0.70 0.66 0.61 0.60 0.64 0.62 0.54 0.51 0.55 0.56 0.53 0.44 0.37 0.32 0.27 0.26 0.27 0.28 0.31 0.38 0.43 0.46 0.53 0.59 0.73 0.89 1.18 1.64 2.31 2.95 2.96 2.88 2.93 2.58 2.20 2.04 2.04 2.13
0.93 0.87 0.79 0.73 0.76 0.74 0.70 0.64 0.61 0.61 0.65 0.60 0.51 0.62 0.73 0.63 0.44 0.36 0.33 0.29 0.27 0.28 0.27 0.29 0.33 0.41 0.46 0.53 0.55 0.59 0.70 0.90 1.23 1.76 2.60 3.33 3.43 3.50 3.39 2.81 2.50 2.40 2.37
0.98 0.93 0.89 0.82 0.75 0.72 0.68 0.65 0.64 0.63 0.68 0.69 0.59 0.53 0.55 0.58 0.62 0.50 0.36 0.35 0.35 0.32 0.30 0.29 0.30 0.36 0.45 0.53 0.60 0.61 0.61 0.72 0.96 1.33 1.98 2.89 3.67 3.94 4.08 3.69 3.06 2.79 2.70
1.03 1.03 1.00 0.95 0.89 0.79 0.70 0.65 0.65 0.68 0.70 0.71 0.66 0.58 0.52 0.46 0.48 0.62 0.50 0.43 0.47 0.45 0.41 0.38 0.36 0.38 0.43 0.54 0.59 0.64 0.71 0.75 1.00 1.20 1.54 2.13 3.13 3.95 4.48 4.52 3.90 3.25 2.93
1.05 1.04 1.04 1.00 0.95 0.93 0.84 0.74 0.70 0.71 0.70 0.70 0.71 0.67 0.65 0.64 0.56 0.59 0.57 0.46 0.45 0.45 0.46 0.50 0.50 0.50 0.52 0.59 0.68 0.82 0.82 0.89 1.07 1.15 1.20 1.46 2.14 3.09 3.94 4.46 4.29 3.62 3.14
1.05 1.05 1.07 1.05 1.00 0.94 0.91 0.85 0.82 0.79 0.77 0.79 0.81 0.78 0.71 0.67 0.64 0.70 0.76 0.63 0.52 0.46 0.46 0.49 0.51 0.54 0.59 0.64 0.76 0.84 0.81 0.87 0.94 1.00 0.97 1.02 1.32 1.99 2.92 3.89 4.33 3.98 3.42
0.96 0.92 0.96 0.98 0.95 0.90 0.87 0.87 0.87 0.84 0.85 0.89 0.87 0.87 0.85 0.76 0.74 0.81 0.90 0.99 0.89 0.62 0.50 0.49 0.48 0.51 0.58 0.66 0.79 0.88 0.77 0.80 0.84 0.89 0.89 0.86 0.95 1.24 1.93 2.95 4.18 4.60 4.00
0.89 0.91 0.90 0.90 0.86 0.82 0.79 0.79 0.80 0.79 0.84 0.88 0.90 0.93 0.94 0.86 0.85 0.86 0.92 1.11 1.35 1.14 0.67 0.48 0.48 0.52 0.57 0.64 0.81 0.76 0.70 0.73 0.76 0.80 0.88 0.90 0.90 0.99 1.27 1.87 2.82 4.16 4.81
0.84 0.86 0.89 0.87 0.86 0.81 0.79 0.79 0.75 0.73 0.79 0.82 0.85 0.91 0.93 0.89 0.86 0.85 0.92 0.96 1.09 1.25 0.97 0.52 0.45 0.51 0.64 0.67 0.72 0.69 0.72 0.82 0.80 0.79 0.80 0.84 0.90 0.95 1.10 1.37 1.85 2.69 3.90
0.80 0.79 0.81 0.83 0.83 0.84 0.84 0.88 0.83 0.75 0.78 0.80 0.83 0.86 0.86 0.87 0.91 0.87 0.90 0.93 0.94 1.00 0.99 0.57 0.42 0.45 0.64 0.73 0.71 0.69 0.73 0.76 0.76 0.82 0.83 0.86 0.90 0.97 1.12 1.27 1.52 1.96 2.67
0.83 0.82 0.82 0.85 0.83 0.85 0.87 0.91 0.88 0.79 0.78 0.80 0.81 0.82 0.81 0.82 0.86 0.83 0.83 0.85 0.83 0.79 0.82 0.67 0.45 0.44 0.53 0.63 0.76 0.82 0.79 0.77 0.76 0.81 0.83 0.91 1.00 1.02 1.09 1.22 1.43 1.75 2.13
0.88 0.84 0.85 0.87 0.91 0.92 0.89 0.85 0.88 0.84 0.80 0.79 0.81 0.84 0.81 0.84 0.86 0.80 0.80 0.78 0.71 0.66 0.69 0.72 0.56 0.49 0.53 0.58 0.75 0.90 0.87 0.85 0.82 0.84 0.87 0.93 1.00 1.06 1.09 1.14 1.30 1.54 1.75
0.92 0.84 0.81 0.85 0.96 1.11 1.10 0.99 1.03 0.96 0.86 0.80 0.75 0.75 0.80 0.90 0.90 0.88 0.90 0.79 0.72 0.76 0.80 0.85 0.72 0.61 0.64 0.66 0.81 1.01 1.09 1.04 0.99 0.90 0.92 0.96 1.05 1.14 1.13 1.07 1.07 1.15 1.33
0.89 0.81 0.78 0.81 0.91 1.25 1.60 1.54 1.45 1.21 0.94 0.78 0.71 0.72 0.79 0.92 0.97 1.08 1.17 1.04 1.02 1.11 1.08 1.10 1.01 0.92 0.87 0.90 0.98 1.01 1.16 1.19 1.19 1.06 0.97 0.92 0.96 0.96 1.00 1.03 1.03 1.05 1.12
0.94 0.85 0.80 0.78 0.81 1.08 1.66 1.76 1.47 1.09 0.91 0.80 0.74 0.70 0.73 0.85 0.88 0.96 1.09 1.17 1.24 1.36 1.40 1.39 1.34 1.23 1.02 0.95 0.98 1.11 1.19 1.36 1.43 1.16 1.08 1.03 1.00 1.05 1.00 0.98 1.08 1.08 1.10
0.97 0.98 0.87 0.78 0.74 0.89 1.45 1.58 1.28 0.96 0.82 0.78 0.73 0.72 0.72 0.79 0.85 0.84 0.92 0.95 0.98 1.12 1.33 1.44 1.50 1.18 1.02 0.97 1.14 1.34 1.32 1.40 1.38 1.31 1.40 1.35 1.10 1.10 1.04 1.12 1.25 1.16 1.11
0.87 0.94 0.93 0.84 0.76 0.80 1.27 1.43 1.18 0.93 0.81 0.73 0.67 0.69 0.68 0.71 0.81 0.99 0.98 0.93 0.83 0.86 1.07 1.28 1.51 1.34 1.18 1.21 1.50 1.80 1.91 1.80 1.45 1.27 1.43 1.60 1.23 1.11 1.12 1.20 1.32 1.22 1.10
0.79 0.81 0.85 0.84 0.79 0.76 1.04 1.29 1.14 0.91 0.84 0.75 0.66 0.64 0.64 0.65 0.83 1.08 1.08 0.95 0.78 0.70 0.81 1.13 1.43 1.56 1.56 1.66 1.88 2.20 2.38 2.22 1.80 1.33 1.31 1.54 1.42 1.27 1.36 1.49 1.51 1.37 1.12
0.76 0.75 0.77 0.79 0.74 0.68 0.87 1.12 1.14 0.91 0.82 0.77 0.72 0.65 0.71 0.81 0.95 1.09 1.02 0.98 1.05 0.86 0.76 0.81 0.90 1.04 1.14 1.27 1.59 1.87 2.14 2.19 1.88 1.71 1.42 1.48 1.62 1.61 1.82 1.72 1.58 1.35 1.13